Change the Weather History Date:

Monday, December 2, 2013

  Actual Average Record
Temperature  
Mean Temperature 76 °F -  
Max Temperature 91 °F 71 °F 92 °F (2012)
Min Temperature 60 °F 54 °F 53 °F (2001)
Cooling Degree Days 10    
Growing Degree Days 26 (Base 50)    
Moisture  
Dew Point 68 °F    
Average Humidity 78    
Maximum Humidity 100    
Minimum Humidity 46    
Precipitation  
Precipitation 0.00 in - - ()
Sea Level Pressure  
Sea Level Pressure 30.02 in    
Wind  
Wind Speed 2 mph ()    
Max Wind Speed 12 mph    
Max Gust Speed -    
Visibility 6.0 miles    
Events      
Averages and records for this station are not official NWS values.
T = Trace of Precipitation, MM = Missing Value Source: Averaged Metar Reports

Daily Weather History Graph

Daily Weather History Graph

Search for Another Location

Airport or City:

Trip Planner

Search our weather history database for the weather conditions in past years. The results will help you decide how hot, cold, wet, or windy it might be!

Date:

Astronomy

Dec. 02, 2013 Rise Set
Actual Time 6:17 AM EET 4:50 PM EET
Civil Twilight 5:52 AM EET 5:15 PM EET
Nautical Twilight 5:23 AM EET 5:44 PM EET
Astronomical Twilight 4:55 AM EET 6:12 PM EET
Moon 5:24 AM EET (12/2) 4:31 PM EET (12/2)
Length of Visible Light 11h 23m
Length of Day
10h 32m
Waning Crescent, 1% of the Moon is Illuminated
Dec 2
Waning Crescent
Dec 3
New
Dec 9
First Quarter
Dec 17
Full
Dec 25
Last Quarter

Hourly Weather History & Observations

Time (EET) Temp. Heat Index Dew Point Humidity Pressure Visibility Wind Dir Wind Speed Gust Speed Precip Events Conditions
12:00 AM 64.4 °F - 60.8 °F 88% 30.04 in - Calm Calm - N/A   Clear
1:00 AM 64.4 °F - 60.8 °F 88% 30.04 in - Calm Calm - N/A   Clear
2:00 AM 64 °F - 62 °F 90% 30.00 in 6 mi Calm Calm - -  
2:00 AM 64.4 °F - 62.6 °F 94% 29.98 in - Calm Calm - N/A   Clear
4:00 AM 64.4 °F - 62.6 °F 94% 30.01 in - Calm Calm - N/A   Clear
5:00 AM 63 °F - 62 °F 94% 30.04 in 6 mi Calm Calm - -  
6:00 AM 62.6 °F - 62.6 °F 100% 30.06 in - Calm Calm - N/A   Clear
8:00 AM 67 °F - 66 °F 95% 30.09 in 6 mi West 2.3 mph - -  
10:00 AM 84.2 °F 89.6 °F 71.6 °F 66% 30.06 in - South 5.8 mph - N/A   Clear
11:00 AM 84 °F - 71 °F 57% 30.05 in 6 mi SE 9.2 mph - -   Clear
11:00 AM 84.2 °F 89.6 °F 71.6 °F 66% 30.04 in - SE 9.2 mph - N/A   Clear
12:00 PM 87.8 °F 91.4 °F 68.0 °F 52% 30.01 in - ESE 8.1 mph - N/A   Clear
1:00 PM 89.6 °F 93.4 °F 68.0 °F 49% 30.01 in - ESE 11.5 mph - N/A   Clear
2:00 PM 89 °F - 71 °F 46% 29.99 in 6 mi ESE 8.1 mph - -   Clear
2:00 PM 89.6 °F 93.4 °F 68.0 °F 49% 30.01 in - ESE 11.5 mph - N/A   Clear
3:00 PM 87.8 °F 95.6 °F 73.4 °F 62% 29.98 in - East 5.8 mph - N/A   Clear
4:00 PM 84.2 °F 89.6 °F 71.6 °F 66% 29.98 in - ESE 4.6 mph - N/A   Clear
5:00 PM 80 °F - 71 °F 67% 29.99 in 6 mi Calm Calm - -   Clear
5:00 PM 78.8 °F - 71.6 °F 78% 29.98 in - Calm Calm - N/A   Clear
6:00 PM 78.8 °F - 71.6 °F 78% 29.98 in - Calm Calm - N/A   Clear
7:00 PM 75.2 °F - 71.6 °F 89% 30.01 in - Calm Calm - N/A   Clear
8:00 PM 74 °F - 71 °F 88% 30.02 in 6 mi Calm Calm - -  
8:00 PM 73.4 °F - 71.6 °F 94% 30.01 in - Calm Calm - N/A   Clear
9:00 PM 71.6 °F - 69.8 °F 94% 30.01 in - Calm Calm - N/A   Clear
10:00 PM 69.8 °F - 68.0 °F 94% 30.01 in - Calm Calm - N/A   Clear
11:00 PM 69 °F - 66 °F 87% 30.02 in 6 mi Calm Calm - -  
11:00 PM 68.0 °F - 66.2 °F 94% 30.01 in - Calm Calm - N/A   Clear